This demonstration page uses our WeatherBlox Daily Observations layout. Learn more.

Left ArrowRight Arrow

39.08367, -84.50855

Hourly Observations for May 27, 2019

Temp ( °F °C ) Dew Point ( °F °C ) Humidity (%) Winds ( mph kmh ) Pressure ( in mb ) Visibility ( mi km ) Precip ( " mm )
12:31 am 00:31 Partly Cloudy with Mist and Fog 66 18.9 65 18.3 96 96 SSW 5 7 30.04 1017 2 3 N/A
12:50 am 00:50 Mostly Clear with Mist and Fog 68 20 66 19 94 94 N N/A 30.04 1017 3 5 N/A
12:53 am 00:53 Clear with Mist and Fog 67 19.4 67 19.4 100 100 N N/A 30.04 1017 3 4 N/A
12:59 am 00:59 Clear with Mist and Fog 67 19.4 66 18.9 97 97 N N/A 30.04 1017 1 1 N/A
1:11 am 01:11 Mostly Cloudy with Fog 66 18.9 65 18.3 96 96 N N/A 30.04 1017 0 0 N/A
1:35 am 01:35 Mostly Cloudy with Fog 65 18.3 65 18.3 100 100 N N/A 30.04 1017 1 1 N/A
1:50 am 01:50 Mostly Cloudy with Mist and Fog 66 19 64 18 94 94 N N/A 30.03 1017 3 4 N/A
1:51 am 01:51 Mostly Cloudy with Mist and Fog 66 19 64 18 94 94 N N/A 30.03 1017 3 5 N/A
1:53 am 01:53 Mostly Cloudy with Mist and Fog 66 18.9 65 18.3 96 96 N N/A 30.03 1017 4 6 N/A
2:01 am 02:01 Cloudy with Mist and Fog 66 18.9 66 18.9 100 100 N N/A 30.04 1017 1 2 N/A
2:09 am 02:09 Cloudy with Fog 66 18.9 65 18.3 96 96 N N/A 30.04 1017 1 1 N/A
2:27 am 02:27 Mostly Cloudy with Fog 66 18.9 65 18.3 96 96 N N/A 30.03 1017 0 0 N/A
2:53 am 02:53 Mostly Cloudy with Fog 66 18.9 65 18.3 96 96 N N/A 30.03 1017 5 8 N/A
3:53 am 03:53 Mostly Cloudy with Fog 65 18.3 64 17.8 97 97 N N/A 30.02 1017 0 0 N/A
4:53 am 04:53 Mostly Cloudy with Fog 64 17.8 64 17.8 100 100 N N/A 30.04 1017 5 8 N/A
5:53 am 05:53 Mostly Cloudy with Fog 63 17.2 63 17.2 100 100 VRB 3 6 30.04 1017 1 1 N/A
6:01 am 06:01 Mostly Cloudy with Fog 64 17.8 63 17.2 96 96 N N/A 30.04 1017 0 0 N/A
6:53 am 06:53 Mostly Cloudy with Fog 63 17.2 63 17.2 100 100 N N/A 30.06 1018 5 8 N/A
7:53 am 07:53 Mostly Cloudy with Fog 64 17.8 64 17.8 100 100 N N/A 30.06 1018 5 8 N/A
8:30 am 08:30 Mostly Cloudy with Mist and Fog 66 18.9 65 18.3 96 96 N N/A 30.06 1018 1 2 N/A
8:34 am 08:34 Mostly Cloudy with Mist and Fog 67 19.4 65 18.3 93 93 N N/A 30.06 1018 3 5 N/A
8:44 am 08:44 Partly Cloudy 67 19.4 65 18.3 93 93 N N/A 30.07 1018 10 16 N/A
8:53 am 08:53 Mostly Sunny 67 19.4 65 18.3 93 93 E 3 6 30.07 1018 10 16 N/A
9:53 am 09:53 Sunny 73 22.8 65 18.3 76 76 ENE 3 6 30.06 1018 10 16 N/A
10:53 am 10:53 Mostly Sunny 76 24.4 68 20 77 77 N N/A 30.04 1017 10 16 N/A
11:53 am 11:53 Sunny 77 25 64 17.8 64 64 S 7 11 30.03 1017 10 16 N/A
12:53 pm 12:53 Mostly Cloudy 78 25.6 67 19.4 69 69 S 7 11 30.02 1017 10 16 N/A
1:53 pm 13:53 Partly Cloudy 80 26.7 67 19.4 64 64 S 10 17 29.99 1016 10 16 N/A
2:53 pm 14:53 Sunny 81 27.2 67 19.4 62 62 SSE 10 17 29.96 1015 10 16 N/A
3:53 pm 15:53 Partly Cloudy 80 26.7 67 19.4 64 64 SSW 12 19 29.94 1014 10 16 N/A
4:53 pm 16:53 Mostly Cloudy 81 27.2 69 20.6 67 67 S 12 19 29.91 1013 10 16 N/A
5:53 pm 17:53 Mostly Sunny 81 27.2 69 20.6 67 67 S 8 13 29.88 1012 10 16 N/A
6:53 pm 18:53 Partly Cloudy 80 26.7 70 21.1 71 71 SSE 7 11 29.85 1011 10 16 N/A
7:53 pm 19:53 Sunny 79 26.1 70 21.1 74 74 S 7 11 29.85 1011 10 16 N/A
8:53 pm 20:53 Sunny 77 25 69 20.6 77 77 S 6 9 29.81 1010 10 16 N/A
9:53 pm 21:53 Clear 76 24.4 69 20.6 79 79 S 9 15 29.81 1010 10 16 N/A
10:53 pm 22:53 Clear 76 24.4 69 20.6 79 79 S 10 17 29.81 1010 10 16 N/A
11:53 pm 23:53 Clear 76 24.4 67 19.4 74 74 SSW 10 17 29.82 1010 10 16 N/A

Powered by AerisWeather